Regional Weather Roundup
Issued by NWS

Home | Current Version | Previous Version | Text Only | Print | Product List | Glossary On
Versions: 1 2 3 4 5 6 7 8 9 10 11 12 13 14 15 16 17 18 19 20 21 22 23 24 25 26 27 28 29 30 31 32 33 34 35 36 37 38 39 40 41 42 43 44 45 46 47 48 49 50
000
ASUS44 KMEG 191800
RWRTN
TENNESSEE HOURLY STATE WEATHER ROUNDUP
NATIONAL WEATHER SERVICE MEMPHIS TN
100 PM CDT SUN APR 19 2015

TNZ002-004-019-021-049-052-054-088>092-191900-
WEST TENNESSEE

CITY           SKY/WX    TMP DP  RH WIND       PRES   REMARKS
MEMPHIS INTL   CLOUDY    69  63  81 W14G22    29.67R
NWS MEMPHIS      N/A     69 N/A N/A MISG        N/A
JACKSON        LGT RAIN  69  63  81 W13       29.62R
DYERSBURG      CLOUDY    70  54  56 SW13      29.61R
UNION CITY     MOSUNNY   70  32  24 SW10      29.57F
PARIS          CLOUDY    64  64 100 SW9       29.59S
LEXINGTON      CLOUDY    64  64 100 SW6       29.61S
SAVANNAH       CLOUDY    72  32  23 SW13      29.64F
$$

TNZ008-025-027-028-033-062-065-066-191900-
NORTH MIDDLE TENNESSEE

CITY           SKY/WX    TMP DP  RH WIND       PRES   REMARKS
NASHVILLE      CLOUDY    72  63  73 S12       29.62F
CLARKSVILLE    PTSUNNY   74  65  73 S14       29.58S
COOKEVILLE     PTSUNNY   72  64  78 SW10        N/A
CROSSVILLE     CLOUDY    69  60  73 S9G21     29.72S
$$

TNZ061-075-076-078-094-096-097-191900-
SOUTH MIDDLE TENNESSEE

CITY           SKY/WX    TMP DP  RH WIND       PRES   REMARKS
FAYETTEVILLE     N/A     70  63  78 SW5G16    29.68F
TULLAHOMA      PTSUNNY   70  61  73 CALM      29.69F
WINCHESTER     CLOUDY    70  63  78 SW10      29.70S
MCMINNVILLE    MOSUNNY   73  64  73 SW10      29.67F
COLUMBIA       PTSUNNY   75  32  20 SW12      29.62F
SHELBYVILLE    CLOUDY    72  66  83 S13       29.67F
$$

TNZ017-018-042-046-047-191900-
NORTHEAST TENNESSEE

CITY           SKY/WX    TMP DP  RH WIND       PRES   REMARKS
TRI CITIES     LGT RAIN  66  63  90 NE5       29.81F
ELIZABETHTON   CLOUDY    64  61  88 VRB5      29.82F
$$

TNZ012-013-036-069-073-074-191900-
CENTRAL EAST TENNESSEE

CITY           SKY/WX    TMP DP  RH WIND       PRES   REMARKS
KNOXVILLE      LGT RAIN  69  63  81 S7        29.71F
OAK RIDGE      RAIN      67  65  93 CALM      29.73F FOG
GATLINBURG     CLOUDY    66  64  94 CALM      29.74S
$$

TNZ083-085-099-191900-
SOUTHEAST TENNESSEE

CITY           SKY/WX    TMP DP  RH WIND       PRES   REMARKS
CHATTANOOGA    CLOUDY    69  64  84 S8G18     29.73S
$$

SKY/WX REPORTED AS FAIR MEANS FEW OR NO CLOUDS BELOW
12 THOUSAND FEET.



USA.gov is the U.S. government's official web portal to all federal, state and local government web resources and services.